map of WVB home
Great Circle Mapper logo
WVB - Airport
Location
City:  Walvis Bay, Namibia
Name:Rooikop
ICAO / IATA:FYWB / WVB

Details
Type:Airport (Aerodrome, Airfield)
Use:Public/Civil, International (customs port of entry)
Latitude:2258'48"S (-22.979888)
Longitude:1438'43"E (14.645331)
Datum:other
Elevation:299 ft (91 m)
Variation:13.23W (WMM2015 magnetic declination)
0.12 annual change
Runways:1
Longest:7001 × 98 ft (2134 × 30 m), paved

Time
Time Zone:UTC+1 (DST+2)
Local Time:

Weather
METAR:FYWB 180600Z 08002KT 9999 OVC005 10/08 Q1017
TAF:FYWB 171600Z 1718/1824 33006KT CAVOK
BECMG 1719/1721 9999 OVC010 PROB30
TEMPO 1722/1806 00000KT 0700 FG OVC007
BECMG 1806/1808 OVC015
BECMG 1809/1811 25010KT CAVOK

Related Locations
Nearby:
Farthest:PHHF: 12352 mi / 19878 km
Tern Island [French Frigate Shoals Airport], Hawaii, HI, US

Find:

   beyond  
but within

Other Information
Maps:
NOTAMs:
Links:
Sources:

  
flag of Namibia   

Sectional Chart

Flight Planning
at skyvector.com

Satellite Image

Google Maps Satellite View

 

Copyright © 2004-2015 Karl L. Swartz. All rights reserved.
The Great Circle Mapper name and logo are trademarks of the Great Circle Mapper.
All other trademarks mentioned herein belong to their respective owners.
Please see credits for attibutions and further copyright information.

  Follow gcmap on Facebook Follow gcmap on Twitter Follow gcmap on Google+

hCard Microformat

Geo Microformat